Location: Central Falls
(41.8900°N, 71.3929°W)
Time: 11:33:49
(UTC+00:00)

A-11 Canister half - Pass Details

Date: 13 December 2023
Orbit: 1512 x 1687 km, 47.2° (Epoch: 20 February)

Event Time Altitude Azimuth Distance (km) Brightness Sun altitude
Rises 06:52:43 0° 288° (WNW) 4,766 - -56.6°
Reaches altitude 10° 06:55:47 10° 290° (WNW) 3,803 - -56.0°
Maximum altitude 07:05:32 73° 16° (NNE) 1,698 - -54.4°
Exits shadow 07:11:25 29° 95° (E) 2,689 10.4 -53.3°
Drops below altitude 10° 07:15:37 10° 101° (E) 3,926 11.5 -52.6°
Sets 07:18:50 0° 103° (ESE) 4,925 12.1 -52.0°
